Regional Weather Roundup
Issued by NWS

Home | Current Version | Previous Version | Text Only | Print | Product List | Glossary Off
Versions: 1 2 3 4 5 6 7 8 9 10 11 12 13 14 15 16 17 18 19 20 21 22 23 24 25 26 27 28 29 30 31 32 33 34 35 36 37 38 39 40 41 42 43 44 45 46 47 48 49 50

419
ASUS43 KTOP 281059
RWRKS

WEATHER ROUNDUP FOR KANSAS
NATIONAL WEATHER SERVICE GOODLAND KS
600 AM CDT SAT MAY 28 2016

NOTE:  "FAIR" INDICATES FEW OR NO CLOUDS BELOW 12,000 FEET WITH NO
SIGNIFICANT WEATHER AND/OR OBSTRUCTIONS TO VISIBILITY.

KSZ001>006-013>018-027>032-041>047-281200-
NORTHWEST KANSAS

CITY           SKY/WX    TMP DP  RH WIND       PRES   REMARKS
GOODLAND       CLEAR     47  44  90 W10       29.90R
HAYS           CLEAR     52  45  76 W7        29.80F
HILL CITY      CLOUDY    51  49  92 W5        29.82R
RUSSELL        PTCLDY    54  53  97 SW6       29.78R
$$

KSZ061>065-074>080-084>089-281200-
SOUTHWEST KANSAS

CITY           SKY/WX    TMP DP  RH WIND       PRES   REMARKS
DODGE CITY     CLEAR     50  48  93 W8        29.86R
ELKHART          N/A     49  42  77 W8          N/A
GARDEN CITY    CLEAR     48  45  89 NW9       29.88R
GREAT BEND     CLOUDY    57  50  77 W5        29.81R
LIBERAL        CLEAR     48  43  81 W8        29.91R
$$

KSZ066>073-081>083-090>101-281200-
SOUTHEAST KANSAS

CITY           SKY/WX    TMP DP  RH WIND       PRES   REMARKS
CHANUTE        CLEAR     63  60  90 S13       29.78R
COFFEYVILLE    PTCLDY    65  62  90 S15       29.80R
HUTCHINSON     CLEAR     58  56  93 W7        29.79R
MEDICINE LODGE   N/A     55  51  86 NW5       29.83R
NEWTON         MOCLDY    57  54  88 CALM      29.79R
PARSONS        PTCLDY    63  62  97 S8        29.80R
WICHITA INTL   MOCLDY    58  55  90 W8        29.78R
WICHITA JABRA  CLEAR     57  55  93 SW10      29.77R
WINFIELD       CLEAR     58  54  86 SW9       29.80R
$$

KSZ007>012-019>026-033>040-048>060-102>105-281200-
NORTHEAST KANSAS

CITY           SKY/WX    TMP DP  RH WIND       PRES   REMARKS
CONCORDIA      CLOUDY    58  56  93 NW6       29.75R
EMPORIA        CLEAR     58  57  97 S8        29.74S
LAWRENCE       CLOUDY    60  58  92 SE10      29.76F
MANHATTAN      CLOUDY    60  57  89 NW3       29.74R
OLATHE IND     CLOUDY    59  58  96 E7        29.78S
OLATHE EXE     CLOUDY    58  57  97 E5        29.78S
SALINA         CLOUDY    60  58  92 W6        29.77R
TOPEKA BILLARD CLOUDY    60  58  92 E7        29.74F
TOPEKA FORBES  CLOUDY    60  58  92 E10       29.73F
$$




USA.gov is the U.S. government's official web portal to all federal, state and local government web resources and services.